E3891 Weather Reports


time (UTC)temp
F
wind
direction
speed
knots
gust
knots
rain 1hr
in
rain 24hr
in
rain mn
in
humidity
%
barometer
mb
20260505165421 0 287 4.3 9.6 0.00 1.44 8.93 1007.3
20260505164937 0 313 5.2 11.3 0.00 1.44 8.93 1007.6
20260505164433 52 348 0.9 130.3 0.00 1.44 8.93 44 1007.4
20260505163938 52 309 8.7 130.3 0.00 1.44 8.93 44 1007.4
20260505163429 53 271 7.8 131.2 0.00 1.44 8.93 44 1007.2
20260505162941 33 340 0.9 131.2 0.00 1.44 8.93 100 1007.6
20260505162421 0 299 0.0 7.8 6.54 1.44 8.93 1007.5
20260505161942 0 348 0.9 7.8 6.54 1.44 8.93 1007.2
20260505161432 0 331 7.0 7.8 6.54 1.44 8.93 1007.2
20260505161141 33 325 7.0 133.0 6.54 1.44 8.93 45 1007.2
20260505160955 33 323 0.0 131.2 6.54 1.44 8.93 45 1007.5
20260505152920 51 356 0.0 134.7 1.30 1.44 8.93 100 1007.2
20260505152416 33 332 4.3 8.7 6.50 7.91 8.93 100 1007.0
20260505151920 33 333 4.3 137.3 6.50 7.91 8.93 100 1007.1
20260505151415 51 351 0.0 137.3 6.50 8.02 8.93 100 1006.7
20260505150915 51 359 3.5 138.2 6.50 8.02 8.93 100 1006.9
20260505150422 51 325 2.6 138.2 6.50 8.02 8.79 100 1006.9
20260505140159 50 338 0.0 145.1 0.00 2.02 8.79 48 1006.4
20260505130151 49 347 0.0 2.6 0.00 2.65 8.04 55 1007.1
20260505124635 48 333 0.0 2.6 0.15 2.74 7.78 54 1007.4
20260505124133 48 13 0.0 2.6 0.15 2.74 7.78 53 1007.3
20260505123639 48 314 1.7 2.6 0.15 2.74 7.63 57 1007.1
20260505123134 48 320 0.0 2.6 0.15 2.74 7.63 56 1007.1
20260505122936 46 342 0.0 0.0 0.24 2.74 6.92 60 1007.2
20260505122633 49 305 0.0 2.6 0.15 2.74 7.63 56 1007.3
20260505122437 45 341 0.0 0.0 0.09 2.59 4.44 59 1007.0
20260505122142 48 344 0.0 0.0 0.15 2.74 7.63 59 1007.4
20260505121650 47 312 0.0 0.0 0.24 2.74 7.63 56 1007.5
20260505121218 46 341 0.0 0.0 0.24 2.74 6.92 58 1007.2
20260505120158 45 317 0.0 0.0 0.09 2.59 6.17 59 1007.0
20260505115129 46 345 0.0 0.0 0.09 2.59 3.91 58 1006.9
20260505114627 46 344 0.0 0.0 0.18 2.59 2.76 57 1006.5
20260505114128 45 351 0.0 0.0 0.27 2.59 2.20 57 1006.5
20260505113639 45 352 0.0 0.0 0.27 2.59 2.20 57 1006.2
20260505113126 46 352 0.0 0.0 0.27 2.59 2.20 57 1006.3
20260505113037 45 6 0.0 0.0 0.27 2.59 2.20 58 1006.2
20260505112649 46 354 0.0 0.0 0.27 2.59 2.20 57 1006.0
20260505111631 45 9 0.0 0.0 0.18 2.51 1.77 59 1006.1
20260505111128 45 1 0.0 0.0 0.18 2.51 1.77 57 1005.8
20260505111022 46 335 0.0 0.0 0.00 2.33 0.87 55 1005.3
20260505110918 45 3 0.0 0.0 0.18 2.51 1.77 56 1005.4
20260505110641 45 355 0.0 0.0 0.18 2.51 1.77 57 1005.7
20260505110423 46 2 0.0 0.0 0.09 2.42 1.32 55 1005.4
20260505110143 46 4 0.0 0.0 0.18 2.51 1.77 100 1005.6
20260505102134 47 331 0.0 6.1 0.00 2.33 0.87 54 1004.7
20260505101053 47 341 0.9 7.0 0.00 2.33 0.87 51 1003.4
20260505100618 47 341 0.9 7.0 0.00 2.33 0.87 51 1003.3
20260505100049 48 356 0.0 1.7 0.00 2.33 0.87 51 1003.5
20260505095543 48 39 0.0 3.5 0.00 2.33 0.87 50 1004.1
20260505095040 48 355 1.7 3.5 0.00 2.33 0.87 51 1004.5
20260505094529 48 324 0.0 0.9 0.00 2.33 0.87 51 1005.0
20260505094329 61 323 6.1 13.9 0.09 2.45 2.34 38 998.9
20260505094040 48 338 0.0 0.9 0.00 2.33 0.87 52 1005.2
20260505093519 48 341 0.0 0.0 0.00 2.33 0.87 51 1005.1
20260505093041 48 341 0.0 0.0 0.00 2.33 0.87 51 1004.6
20260505092548 48 349 0.0 0.0 0.00 2.33 0.87 50 1004.5
20260505092035 48 342 0.0 0.0 0.00 2.37 0.87 50 1004.5
20260505091520 36 330 0.0 2.6 0.00 2.37 0.87 49 1004.7
20260505091312 49 348 0.0 2.6 0.00 2.37 0.87 48 1004.4
20260505091022 36 351 0.0 2.6 0.00 2.37 0.87 48 1004.3
20260505090021 49 0.0 0.0 0.09 2.37 0.87 48 1004.7
20260505085622 49 326 3.5 9.6 0.09 2.37 0.87 48 1004.8
20260505085511 49 342 0.0 5.2 0.09 2.37 0.87 48 1004.8
20260505085356 49 341 7.0 9.6 0.09 2.37 0.87 48 1004.9
20260505085037 49 342 0.0 5.2 0.09 2.37 0.87 49 1005.1
20260505084558 49 326 3.5 7.8 0.09 2.37 0.87 49 1005.1
20260505083424 35 328 0.9 3.5 0.09 2.37 0.87 47 1003.9
20260505083033 49 329 4.3 7.0 0.09 2.37 0.87 48 1004.4
20260505082006 49 328 0.9 7.0 0.09 2.37 0.87 48 1003.6
20260505081505 49 309 3.5 7.0 0.09 2.37 0.87 50 1003.8
20260505081006 49 339 4.3 7.0 0.09 2.37 0.87 52 1003.9
20260505080510 49 345 7.8 9.6 0.09 2.37 0.87 52 1003.9
20260505080012 49 345 7.8 9.6 0.00 2.29 0.43 52 1003.6
20260505075504 49 346 7.8 8.7 0.00 2.29 0.43 53 1003.6
20260505075332 49 326 7.8 8.7 0.09 2.29 0.43 54 1003.8
20260505075027 49 346 7.8 8.7 0.00 2.29 0.43 55 1004.0
20260505074004 36 9 0.0 5.2 0.09 2.29 0.43 54 1003.0
20260505073508 49 0.0 0.0 0.09 2.29 0.43 56 1003.2
20260505073431 36 352 13.0 18.2 0.09 2.29 0.43 51 1003.6
20260505073029 49 0.0 0.0 0.09 2.29 0.43 52 1002.8
20260505072005 50 352 13.0 18.2 0.09 2.29 0.43 50 1003.8
20260505071507 50 337 2.6 8.7 0.09 2.29 0.43 50 1003.4
20260505071246 51 351 13.9 18.2 0.00 2.20 0.00 49 1002.8
20260505071008 50 337 2.6 8.7 0.09 2.29 0.43 50 1002.9
20260505070932 50 3 6.1 23.5 0.09 2.29 0.43 100 1002.7
20260505070524 50 3 6.1 18.2 0.09 2.29 0.43 51 1002.7
20260505065519 51 330 14.8 23.5 0.09 2.29 0.43 49 1002.7
20260505065106 51 322 12.2 18.2 0.09 2.29 0.35 49 1002.7
20260505064513 51 335 12.2 18.2 0.00 2.20 0.00 48 1003.0
20260505063509 51 336 6.1 14.8 0.00 2.20 0.00 48 1002.5
20260505063436 52 340 16.5 20.0 0.00 2.20 0.00 46 1001.2
20260505062951 51 340 5.2 15.6 0.00 2.20 0.00 100 1002.1
20260505062825 51 338 4.3 21.7 0.00 2.20 0.00 47 1001.4
20260505062502 51 333 12.2 21.7 0.00 2.20 0.00 49 1001.8
20260505061458 52 28 7.8 19.1 0.00 2.20 0.00 48 1001.6
20260505060952 52 327 16.5 19.1 0.00 2.20 0.00 100 1001.5
20260505055930 52 344 9.6 20.0 0.00 2.20 0.00 46 1001.2
20260505055835 52 339 13.9 27.8 0.00 2.20 0.00 45 1001.1
20260505055449 52 349 16.5 27.8 0.00 2.20 0.00 46 1001.0
20260505054439 53 353 14.8 22.6 0.00 2.20 0.00 46 1001.7
20260505053953 53 353 14.8 22.6 0.00 2.20 0.00 46 1001.8
20260505053835 56 351 7.0 20.0 0.09 2.16 2.52 46 1001.2
20260505053440 53 314 14.8 19.1 0.00 2.20 0.00 46 1001.9
20260505052941 53 314 14.8 20.9 0.00 2.20 0.00 47 1002.2
20260505052820 53 324 7.8 19.1 0.00 2.20 0.00 47 1002.1
20260505052810 53 0.0 0.0 0.00 2.20 0.00 48 1002.0
20260505052518 53 339 14.8 20.9 0.00 2.20 0.00 46 1002.0
20260505050925 53 326 5.2 20.0 0.00 2.20 0.00 48 1001.3
20260505050825 58 336 7.8 16.5 0.17 2.47 2.47 41 1000.6
20260505050434 54 340 3.5 22.6 0.00 2.20 0.00 48 1001.3
20260505041514 57 299 10.4 25.2 0.09 2.16 2.52 45 1001.4
20260505040857 58 319 4.3 25.2 0.17 2.16 2.52 44 1001.0
20260505040411 58 317 15.6 23.5 0.17 2.48 2.52 44 1001.2
20260505035850 58 337 9.6 23.5 0.26 2.48 2.50 43 1001.4
20260505035414 58 22 14.8 21.7 0.17 2.47 2.47 42 1001.0
20260505034909 58 326 13.0 20.9 0.17 2.47 2.47 42 1000.8
20260505034401 58 22 10.4 20.9 0.17 2.47 2.47 42 1000.6
20260505033853 58 338 5.2 20.9 0.17 2.47 2.47 42 1000.7
20260505033351 58 22 10.4 18.2 0.17 2.47 2.47 42 1000.4
20260505032922 58 334 10.4 15.6 0.17 2.47 2.47 41 1000.5
20260505032441 58 321 11.3 15.6 0.17 2.47 2.47 100 1000.6
20260505031908 58 316 9.6 14.8 0.17 2.47 2.47 100 1000.8
20260505031115 59 329 10.4 20.0 0.09 2.46 2.39 40 1000.0
20260505030840 79 306 13.0 16.5 0.09 2.46 2.43 40 1000.5
20260505030348 59 270 8.7 15.6 0.17 2.46 2.40 41 1000.3
20260505025911 59 336 9.6 20.0 0.09 2.46 2.39 41 1000.4
20260505024835 59 315 9.6 20.0 0.09 2.46 2.39 100 1000.1
20260505024356 59 298 8.7 16.5 0.09 2.46 2.39 41 1000.1
20260505023922 60 320 11.3 16.5 0.09 2.46 2.39 40 999.8
20260505023348 60 22 3.5 18.2 0.09 2.46 2.39 40 999.8
20260505023152 62 342 7.0 20.9 0.09 2.45 2.34 37 998.6
20260505022843 60 325 9.6 19.1 0.09 2.46 2.39 100 999.8
20260505022539 63 318 6.1 18.2 0.09 2.45 2.34 36 997.7
20260505022340 60 323 10.4 19.1 0.09 2.46 2.39 100 999.8
20260505021910 60 331 10.4 19.1 0.09 2.46 2.39 39 999.6
20260505021344 61 341 13.9 19.1 0.17 2.46 2.39 38 999.5
20260505020850 61 333 7.8 18.2 0.17 2.46 2.39 40 999.0
20260505020344 61 317 7.8 12.2 0.09 2.45 2.34 39 999.1
20260505015747 64 338 13.0 26.9 0.00 2.45 2.13 34 997.3
20260505015349 62 338 4.3 13.9 0.09 2.45 2.34 38 998.9
20260505014930 62 310 10.4 18.2 0.09 2.45 2.34 37 998.7
20260505013903 62 22 11.3 20.9 0.09 2.45 2.34 36 997.8
20260505013429 62 354 8.7 19.1 0.09 2.45 2.34 36 997.8
20260505012349 63 22 7.8 22.6 0.09 2.46 2.34 35 997.4
20260505011837 63 327 4.3 25.2 0.09 2.46 2.30 35 997.4
20260505011358 64 295 16.5 25.2 0.00 2.45 2.21 34 997.3
20260505010741 66 328 13.0 26.9 0.09 2.45 2.04 35 996.9
20260505010337 64 326 14.8 25.2 0.00 2.45 2.13 34 997.3
20260505010135 68 341 13.9 26.1 0.09 2.45 2.04 35 996.6
20260505005841 65 359 13.0 30.4 0.00 2.45 2.08 34 997.1
20260505005734 68 339 3.5 23.5 0.18 2.45 2.04 35 996.4
20260505005355 65 336 13.0 30.4 0.09 2.45 2.08 35 997.2
20260505004928 66 330 14.8 26.9 0.09 2.45 2.08 35 997.0
20260505003850 66 324 15.6 22.6 0.09 2.45 2.04 35 996.8
20260505003425 67 332 10.4 22.6 0.09 2.45 2.04 35 996.7
20260505002935 67 345 6.1 26.1 0.09 2.45 2.04 36 996.6
20260505001319 68 318 9.6 27.8 0.18 2.45 2.04 35
20260505000810 69 22 14.8 27.8 0.18 2.45 2.00 35
20260505000315 69 304 11.3 26.1 0.18 2.45 2.00 35 995.8
20260504235810 70 347 13.0 26.1 0.18 2.45 2.00 35 995.8
20260504235300 71 22 20.0 26.1 0.09 2.44 1.95 34 995.7
20260504234807 71 340 3.5 25.2 0.09 2.44 1.95 33 995.9
20260504234300 72 331 14.8 22.6 0.09 2.44 1.95 32 995.5
20260504233748 72 319 13.9 26.9 0.09 2.44 1.95 33 995.6
20260504233641 73 355 12.2 22.6 0.09 2.44 1.85 34
20260504233312 72 340 13.0 26.9 0.09 2.44 1.91 33 995.7
20260504232819 73 340 16.5 22.6 0.09 2.44 1.91 33
20260504231746 74 315 14.8 21.7 0.00 2.43 1.82 33 995.4
20260504231253 74 330 10.4 22.6 0.00 2.43 1.82 33 995.4
20260504230745 74 318 16.5 22.6 0.00 2.43 1.82 32 995.1
20260504230623 75 312 16.5 21.7 0.00 2.43 1.82 33 994.8
20260504230053 76 319 14.8 25.2 0.00 2.43 1.82 32 995.0
20260504225806 76 23 19.1 25.2 0.00 2.43 1.82 32 995.0
20260504225046 81 293 21.7 26.9 0.00 2.43 1.78 100 993.7
20260504224737 76 23 15.6 25.2 0.00 2.43 1.82 33 995.0
20260504224609 77 349 13.0 23.5 0.00 2.43 1.82 35 994.7
20260504224108 77 315 13.9 21.7 0.00 2.43 1.82 34 994.9
20260504223512 78 332 14.8 23.5 0.00 2.43 1.82 36 994.2
20260504223105 78 322 14.8 23.5 0.00 2.43 1.82 100 994.7
20260504222942 78 10 16.5 25.2 0.00 2.43 1.82 100 994.2
20260504222603 78 310 10.4 21.7 0.00 2.43 1.82 100 994.6
20260504222056 78 321 14.8 22.6 0.00 2.43 1.82 36 994.4
20260504221616 78 23 14.8 23.5 0.00 2.43 1.82 36 994.4
20260504220704 79 343 15.6 23.5 0.00 2.43 1.82 100 993.9
20260504215647 79 337 20.0 25.2 0.00 2.43 1.82 100 994.0
20260504215136 80 332 11.3 27.8 0.00 2.43 1.82 35 994.0
20260504214551 79 323 15.6 28.7 0.00 2.43 1.78 100 993.9
20260504214044 80 305 4.3 28.7 0.00 2.43 1.78 100 994.0
20260504213619 81 287 16.5 26.9 0.00 2.43 1.78 100 994.0
20260504212540 81 23 20.0 27.8 0.00 2.43 1.78 30 993.9
20260504212025 82 291 14.8 27.8 0.00 2.43 1.78 30 993.8
20260504211531 82 325 16.5 21.7 0.00 2.43 1.78 30 993.8
20260504211037 81 269 18.2 21.7 0.00 2.43 1.78 100 993.9
20260504210903 80 271 12.2 23.5 0.00 2.44 1.78 32 994.0
20260504210537 80 274 13.0 20.0 0.00 2.44 1.78 32 993.9
20260504210023 80 310 15.6 22.6 0.00 2.44 1.78 32 994.0
20260504205552 80 291 18.2 22.6 0.00 2.44 1.78 100 993.9
20260504204543 81 345 17.4 23.5 0.00 2.44 1.78 32 994.4
20260504204449 79 281 16.5 18.2 0.00 2.44 1.78 100 994.4
20260504204046 79 291 10.4 19.1 0.00 2.44 1.78 100 994.4
20260504203044 80 252 12.2 20.9 0.00 2.45 1.78 35 994.6
20260504202551 80 23 13.0 20.9 0.02 2.45 1.78 33 994.5
20260504202044 80 268 10.4 20.9 0.02 2.45 1.78 34 994.5
20260504201549 79 277 12.2 21.7 0.02 2.45 1.78 100 994.7
20260504201413 80 272 15.6 22.6 0.02 2.45 1.63 100 994.6
20260504200945 80 289 15.6 22.6 0.02 2.45 1.70 100 994.9
20260504195904 79 279 12.2 22.6 0.02 2.46 1.63 33 994.6
20260504195406 79 283 11.3 15.6 0.02 2.46 1.63 100 995.0
20260504194853 79 284 14.8 21.7 0.02 2.46 1.63 100 994.9
20260504194344 80 282 12.2 21.7 0.02 2.46 1.63 100 994.9
20260504193844 80 280 16.5 21.7 0.11 2.46 1.63 100 995.1
20260504193331 78 279 9.6 19.1 0.11 2.46 1.63 35 995.2
20260504193113 79 267 13.9 20.0 0.09 2.46 1.53 32 995.1
20260504192830 80 271 12.2 20.9 0.09 2.46 1.56 33 995.5
20260504191813 79 280 13.0 22.6 0.09 2.46 1.53 35 995.1
20260504191654 78 287 14.8 20.9 0.09 2.46 1.49 100 995.2
20260504191309 79 235 15.6 22.6 0.09 2.46 1.53 33 995.4
20260504190636 78 304 18.2 22.6 0.09 2.46 1.49 100 995.2
20260504190303 78 280 13.0 21.7 0.09 2.46 1.49 100 995.2
20260504185700 81 24 17.4 25.2 0.09 2.46 1.49 100 995.3
20260504185313 79 249 13.9 25.2 0.09 2.46 1.49 100 995.3
20260504184559 81 263 13.0 22.6 0.00 2.45 1.44 100 995.3
20260504184259 80 280 12.2 22.6 0.09 2.46 1.49 33 995.5
20260504183218 80 274 12.2 20.9 0.00 2.45 1.44 34 995.5
20260504182722 80 277 12.2 20.0 0.00 2.45 1.44 34 995.4
20260504182221 80 292 12.2 20.9 0.00 2.45 1.44 100 995.3
20260504181739 79 278 17.4 20.9 0.10 2.45 1.44 100 995.5
20260504181232 79 301 13.9 22.6 0.10 2.45 1.44 100 995.4
20260504180732 79 289 11.3 23.5 0.10 2.45 1.44 100 995.5
20260504180231 79 233 14.8 23.5 0.10 2.45 1.44 33 995.4
20260504175732 79 269 16.5 21.7 0.10 2.45 1.44 34 995.5
20260504175240 79 306 8.7 20.0 0.10 2.45 1.44 37 995.2
20260504174734 78 275 10.4 20.0 0.10 2.45 1.44 35 995.5
20260504174235 0 285 13.0 20.0 0.10 2.45 1.44 995.6
20260504173732 79 25 7.8 15.6 0.10 2.45 1.39 35 995.3
20260504173237 79 268 12.2 15.6 0.10 2.45 1.39 35 995.5
20260504172741 79 284 7.0 18.2 0.10 2.45 1.39 100 995.4
20260504172232 78 303 5.2 18.2 0.10 2.45 1.39 100 995.5
20260504171743 78 25 0.9 13.0 0.00 2.44 1.34 35 995.8
20260504171230 78 272 8.7 13.0 0.00 2.44 1.34 38 995.7
20260504170739 78 279 5.2 13.9 0.00 2.44 1.34 42 995.8
20260504170157 77 25 8.7 13.9 0.00 2.44 1.34 100 995.9